View from above orbital plane
|
View from above satellite
|
Ground track
|
The orbit data is extracted from the following two-line orbital elements,
1 27665U 03005C 13142.17092038 -.00000011 00000-0 29473-4 0 7591
2 27665 039.5751 119.9890 0008127 320.5286 105.4122 14.28047641538276
| Epoch (UTC): | 22 May 2013 04:06:07 |
| Eccentricity: | 0.0008127 |
| inclination: | 39.5751° |
| perigee height: | 792 km |
| apogee height: | 804 km |
| right ascension of ascending node: | 119.9890° |
| argument of perigee: | 320.5286° |
| revolutions per day: | 14.28047641 |
| mean anomaly at epoch: | 105.4122° |
| orbit number at epoch: | 53827 |
The dashed part of the orbit path shows where the satellite is in the earth's shadow,
|
|